Overview Statistics Trail Chart Weather Telemetry Raw packets
 

This is the latest recevied weather packets stored in our database for station/object WE1C. If no packets are shown the sender has not sent any weather packets the latest 10 day(s).

<< 101 102 103 104 105 106 107 >>
Time Temp. Humidity Pressure Rain* Wind** Luminosity Snow
1787850916 23.89° C 79% 1045.8 hPa 0 mm - 278 W/m² -
1787850618 23.89° C 79% 1045.8 hPa 0 mm - 230 W/m² -
1787850307 23.89° C 79% 1046.2 hPa 0 mm - 286 W/m² -
1787850002 24.44° C 79% 1045.9 hPa 0 mm - 258 W/m² -
1787849696 23.89° C 78% 1046 hPa 0 mm - 196 W/m² -
1787849392 24.44° C 79% 1046.1 hPa 0 mm - 238 W/m² -
1787849084 24.44° C 79% 1045.9 hPa 0 mm - 121 W/m² -
1787848779 24.44° C 80% 1046 hPa 0 mm - 197 W/m² -
1787848479 24.44° C 79% 1046.3 hPa 0 mm - 235 W/m² -
1787848174 24.44° C 78% 1046.2 hPa 0 mm - 202 W/m² -
1787847873 25° C 78% 1046.2 hPa 0 mm - 285 W/m² -
1787847568 25° C 78% 1046.1 hPa 0 mm - 354 W/m² -
1787847264 25° C 76% 1046 hPa 0 mm - 424 W/m² -
1787846961 25° C 77% 1046.1 hPa 0 mm - 390 W/m² -
1787846660 25.56° C 74% 1046 hPa 0 mm - 511 W/m² -
1787846355 25.56° C 76% 1046.4 hPa 0 mm - 554 W/m² -
1787846051 26.11° C 74% 1046.4 hPa 0 mm - 613 W/m² -
1787845747 25° C 76% 1046.3 hPa 0 mm - 735 W/m² -
1787845441 25° C 75% 1046.4 hPa 0 mm - 849 W/m² -
1787845137 25° C 76% 1046.5 hPa 0 mm - 859 W/m² -
1787844833 23.89° C 78% 1046.7 hPa 0 mm - 653 W/m² -
1787844531 23.89° C 80% 1046.7 hPa 0 mm - 270 W/m² -
1787844227 25° C 80% 1046.8 hPa 0 mm - 241 W/m² -
1787843925 24.44° C 80% 1046.9 hPa 0 mm - 623 W/m² -
1787843621 24.44° C 80% 1047 hPa 0 mm - 506 W/m² -

* Rain latest hour (hover to see other rain measurements)
** Current wind speed in m/s (hover to see current wind gust speed)